This demonstration page uses our WeatherBlox Daily Observations layout. Learn more.

Left ArrowRight Arrow

36.19886, -115.1175

Hourly Observations for February 19, 2021

Temp ( °F °C ) Dew Point ( °F °C ) Humidity (%) Winds ( mph kmh ) Pressure ( in mb ) Visibility ( mi km ) Precip ( " mm )
12:53 am 00:53 Clear 42 5.6 13 -10.6 30 30 NNW 7 11 30.34 1027 10 16 N/A
1:53 am 01:53 Clear 41 5 12 -11.1 30 30 W 5 7 30.32 1027 10 16 N/A
2:53 am 02:53 Clear 41 5 14 -10 33 33 N N/A 30.31 1027 10 16 N/A
3:53 am 03:53 Clear 40 4.4 13 -10.6 33 33 N N/A 30.30 1026 10 16 N/A
4:53 am 04:53 Clear 40 4.4 11 -11.7 30 30 WNW 5 7 30.32 1027 10 16 N/A
5:53 am 05:53 Clear 39 3.9 10 -12.2 30 30 WNW 5 7 30.33 1027 10 16 N/A
6:53 am 06:53 Sunny 40 4.4 10 -12.2 29 29 W 5 7 30.34 1027 10 16 N/A
7:53 am 07:53 Sunny 44 6.7 12 -11.1 27 27 N N/A 30.35 1028 10 16 N/A
8:53 am 08:53 Sunny 49 9.4 10 -12.2 21 21 N N/A 30.35 1028 10 16 N/A
9:53 am 09:53 Sunny 52 11.1 8 -13.3 17 17 N N/A 30.34 1027 10 16 N/A
10:53 am 10:53 Sunny 55 12.8 8 -13.3 15 15 E 7 11 30.32 1027 10 16 N/A
11:53 am 11:53 Sunny 57 13.9 9 -12.8 15 15 ESE 3 6 30.28 1026 10 16 N/A
12:53 pm 12:53 Sunny 58 14.4 7 -13.9 13 13 SE 6 9 30.24 1024 10 16 N/A
1:53 pm 13:53 Sunny 60 15.6 8 -13.3 12 12 ENE 5 7 30.19 1022 10 16 N/A
2:53 pm 14:53 Sunny 62 16.7 8 -13.3 12 12 VRB 5 7 30.16 1022 10 16 N/A
3:53 pm 15:53 Sunny 61 16.1 8 -13.3 12 12 N N/A 30.15 1021 10 16 N/A
4:53 pm 16:53 Sunny 60 15.6 7 -13.9 12 12 E 5 7 30.14 1021 10 16 N/A
5:53 pm 17:53 Clear 58 14.4 7 -13.9 13 13 ENE 5 7 30.14 1021 10 16 N/A
6:53 pm 18:53 Clear 56 13.3 8 -13.3 14 14 N N/A 30.14 1021 10 16 N/A
7:53 pm 19:53 Clear 52 11.1 11 -11.7 19 19 NW 5 7 30.13 1020 10 16 N/A
8:53 pm 20:53 Clear 50 10 12 -11.1 22 22 WNW 6 9 30.12 1020 10 16 N/A
9:53 pm 21:53 Clear 49 9.4 13 -10.6 23 23 NNW 6 9 30.11 1020 10 16 N/A
10:53 pm 22:53 Clear 46 7.8 13 -10.6 26 26 NW 6 9 30.09 1019 10 16 N/A
11:53 pm 23:53 Clear 44 6.7 14 -10 30 30 NNW 6 9 30.07 1018 10 16 N/A

Powered by AerisWeather